Location: Barcelona
(41.3830°N, 2.1830°E)
Time: 22:53:28
(UTC+02:00)

ISS - Pass Details

Date: 22 July 2017
Orbit: 400 x 408 km, 51.6° (Epoch: 24 July)

Event Time Altitude Azimuth Distance (km) Brightness Sun altitude
Exits shadow 02:43:16 - 310° (NW) 1,831 -0.2 -27.5°
Reaches altitude 10° 02:44:42 10° 327° (NNW) 1,454 -0.5 -27.4°
Maximum altitude 02:46:26 14° 359° (N) 1,259 -0.5 -27.3°
Drops below altitude 10° 02:48:10 10° 32° (NNE) 1,456 -0.1 -27.3°
Sets 02:51:04 0° 60° (ENE) 2,317 0.6 -27.1°
